owner,sensor,date,latitude,longitude,sea_surface_height_above_sea_level,qcFlag 
COMPS,ioos:station:USF.COMPS:SHP:1,2011-07-01T00:00:00Z,30.0600,-84.2910,-0.614,1111122 
COMPS,ioos:station:USF.COMPS:SHP:1,2011-07-01T00:06:00Z,30.0600,-84.2910,-0.636,1111122 
COMPS,ioos:station:USF.COMPS:SHP:1,2011-07-01T00:12:00Z,30.0600,-84.2910,-0.654,1111122 
COMPS,ioos:station:USF.COMPS:SHP:1,2011-07-01T00:18:00Z,30.0600,-84.2910,-0.672,1111122 
COMPS,ioos:station:USF.COMPS:SHP:1,2011-07-01T00:24:00Z,30.0600,-84.2910,-0.689,1111122 
COMPS,ioos:station:USF.COMPS:SHP:1,2011-07-01T00:30:00Z,30.0600,-84.2910,-0.704,1111122 
COMPS,ioos:station:USF.COMPS:SHP:1,2011-07-01T00:36:00Z,30.0600,-84.2910,-0.717,1111122 
COMPS,ioos:station:USF.COMPS:SHP:1,2011-07-01T00:42:00Z,30.0600,-84.2910,-0.729,1111122 
COMPS,ioos:station:USF.COMPS:SHP:1,2011-07-01T00:48:00Z,30.0600,-84.2910,-0.742,1111122 
COMPS,ioos:station:USF.COMPS:SHP:1,2011-07-01T00:54:00Z,30.0600,-84.2910,-0.754,1111122 
COMPS,ioos:station:USF.COMPS:SHP:1,2011-07-01T01:00:00Z,30.0600,-84.2910,-0.765,1111122 
COMPS,ioos:station:USF.COMPS:SHP:1,2011-07-01T01:06:00Z,30.0600,-84.2910,-0.773,1111122 
COMPS,ioos:station:USF.COMPS:SHP:1,2011-07-01T01:12:00Z,30.0600,-84.2910,-0.78,1111122 
COMPS,ioos:station:USF.COMPS:SHP:1,2011-07-01T01:18:00Z,30.0600,-84.2910,-0.785,1111122 
COMPS,ioos:station:USF.COMPS:SHP:1,2011-07-01T01:24:00Z,30.0600,-84.2910,-0.786,1111122 
COMPS,ioos:station:USF.COMPS:SHP:1,2011-07-01T01:30:00Z,30.0600,-84.2910,-0.783,1111122 
COMPS,ioos:station:USF.COMPS:SHP:1,2011-07-01T01:36:00Z,30.0600,-84.2910,-0.771,1111122 
COMPS,ioos:station:USF.COMPS:SHP:1,2011-07-01T01:42:00Z,30.0600,-84.2910,-0.757,1111122 
COMPS,ioos:station:USF.COMPS:SHP:1,2011-07-01T01:48:00Z,30.0600,-84.2910,-0.751,1111122 
COMPS,ioos:station:USF.COMPS:SHP:1,2011-07-01T01:54:00Z,30.0600,-84.2910,-0.747,1111122 
COMPS,ioos:station:USF.COMPS:SHP:1,2011-07-01T02:00:00Z,30.0600,-84.2910,-0.74,1111122 
COMPS,ioos:station:USF.COMPS:SHP:1,2011-07-01T02:06:00Z,30.0600,-84.2910,-0.731,1111122 
COMPS,ioos:station:USF.COMPS:SHP:1,2011-07-01T02:12:00Z,30.0600,-84.2910,-0.722,1111122 
COMPS,ioos:station:USF.COMPS:SHP:1,2011-07-01T02:18:00Z,30.0600,-84.2910,-0.711,1111122 
COMPS,ioos:station:USF.COMPS:SHP:1,2011-07-01T02:24:00Z,30.0600,-84.2910,-0.698,1111122 
COMPS,ioos:station:USF.COMPS:SHP:1,2011-07-01T02:30:00Z,30.0600,-84.2910,-0.681,1111122 
COMPS,ioos:station:USF.COMPS:SHP:1,2011-07-01T02:36:00Z,30.0600,-84.2910,-0.66,1111122 
COMPS,ioos:station:USF.COMPS:SHP:1,2011-07-01T02:42:00Z,30.0600,-84.2910,-0.642,1111122 
COMPS,ioos:station:USF.COMPS:SHP:1,2011-07-01T02:48:00Z,30.0600,-84.2910,-0.624,1111122 
COMPS,ioos:station:USF.COMPS:SHP:1,2011-07-01T02:54:00Z,30.0600,-84.2910,-0.604,1111122 
COMPS,ioos:station:USF.COMPS:SHP:1,2011-07-01T03:00:00Z,30.0600,-84.2910,-0.583,1111122 
COMPS,ioos:station:USF.COMPS:SHP:1,2011-07-01T03:06:00Z,30.0600,-84.2910,-0.562,1111122 
COMPS,ioos:station:USF.COMPS:SHP:1,2011-07-01T03:12:00Z,30.0600,-84.2910,-0.54,1111122 
COMPS,ioos:station:USF.COMPS:SHP:1,2011-07-01T03:18:00Z,30.0600,-84.2910,-0.511,1111122 
COMPS,ioos:station:USF.COMPS:SHP:1,2011-07-01T03:24:00Z,30.0600,-84.2910,-0.474,1111122 
COMPS,ioos:station:USF.COMPS:SHP:1,2011-07-01T03:30:00Z,30.0600,-84.2910,-0.437,1111122 
COMPS,ioos:station:USF.COMPS:SHP:1,2011-07-01T03:36:00Z,30.0600,-84.2910,-0.397,1111122 
COMPS,ioos:station:USF.COMPS:SHP:1,2011-07-01T03:42:00Z,30.0600,-84.2910,-0.359,1111122 
COMPS,ioos:station:USF.COMPS:SHP:1,2011-07-01T03:48:00Z,30.0600,-84.2910,-0.324,1111122 
COMPS,ioos:station:USF.COMPS:SHP:1,2011-07-01T03:54:00Z,30.0600,-84.2910,-0.285,1111122 
COMPS,ioos:station:USF.COMPS:SHP:1,2011-07-01T04:00:00Z,30.0600,-84.2910,-0.244,1111122 
COMPS,ioos:station:USF.COMPS:SHP:1,2011-07-01T04:06:00Z,30.0600,-84.2910,-0.198,1111122 
COMPS,ioos:station:USF.COMPS:SHP:1,2011-07-01T04:12:00Z,30.0600,-84.2910,-0.165,1111122 
COMPS,ioos:station:USF.COMPS:SHP:1,2011-07-01T04:18:00Z,30.0600,-84.2910,-0.14,1111122 
COMPS,ioos:station:USF.COMPS:SHP:1,2011-07-01T04:24:00Z,30.0600,-84.2910,-0.118,1111122 
COMPS,ioos:station:USF.COMPS:SHP:1,2011-07-01T04:30:00Z,30.0600,-84.2910,-0.105,1111122 
COMPS,ioos:station:USF.COMPS:SHP:1,2011-07-01T04:36:00Z,30.0600,-84.2910,-0.09,1111122 
COMPS,ioos:station:USF.COMPS:SHP:1,2011-07-01T04:42:00Z,30.0600,-84.2910,-0.061,1111122 
COMPS,ioos:station:USF.COMPS:SHP:1,2011-07-01T04:48:00Z,30.0600,-84.2910,-0.029,1111122 
COMPS,ioos:station:USF.COMPS:SHP:1,2011-07-01T04:54:00Z,30.0600,-84.2910,-0.013,1111122 
COMPS,ioos:station:USF.COMPS:SHP:1,2011-07-01T05:00:00Z,30.0600,-84.2910,0.004,1111122 
COMPS,ioos:station:USF.COMPS:SHP:1,2011-07-01T05:06:00Z,30.0600,-84.2910,0.027,1111122 
COMPS,ioos:station:USF.COMPS:SHP:1,2011-07-01T05:12:00Z,30.0600,-84.2910,0.052,1111122 
COMPS,ioos:station:USF.COMPS:SHP:1,2011-07-01T05:18:00Z,30.0600,-84.2910,0.087,1111122 
COMPS,ioos:station:USF.COMPS:SHP:1,2011-07-01T05:24:00Z,30.0600,-84.2910,0.114,1111122 
COMPS,ioos:station:USF.COMPS:SHP:1,2011-07-01T05:30:00Z,30.0600,-84.2910,0.128,1111122 
COMPS,ioos:station:USF.COMPS:SHP:1,2011-07-01T05:36:00Z,30.0600,-84.2910,0.15,1111122 
COMPS,ioos:station:USF.COMPS:SHP:1,2011-07-01T05:42:00Z,30.0600,-84.2910,0.182,1111122 
COMPS,ioos:station:USF.COMPS:SHP:1,2011-07-01T05:48:00Z,30.0600,-84.2910,0.204,1111122 
COMPS,ioos:station:USF.COMPS:SHP:1,2011-07-01T05:54:00Z,30.0600,-84.2910,0.222,1111122 
COMPS,ioos:station:USF.COMPS:SHP:1,2011-07-01T06:00:00Z,30.0600,-84.2910,0.243,1111122 
COMPS,ioos:station:USF.COMPS:SHP:1,2011-07-01T06:06:00Z,30.0600,-84.2910,0.264,1111122 
COMPS,ioos:station:USF.COMPS:SHP:1,2011-07-01T06:12:00Z,30.0600,-84.2910,0.28,1111122 
COMPS,ioos:station:USF.COMPS:SHP:1,2011-07-01T06:18:00Z,30.0600,-84.2910,0.298,1111122 
COMPS,ioos:station:USF.COMPS:SHP:1,2011-07-01T06:24:00Z,30.0600,-84.2910,0.315,1111122 
COMPS,ioos:station:USF.COMPS:SHP:1,2011-07-01T06:30:00Z,30.0600,-84.2910,0.334,1111122 
COMPS,ioos:station:USF.COMPS:SHP:1,2011-07-01T06:36:00Z,30.0600,-84.2910,0.354,1111122 
COMPS,ioos:station:USF.COMPS:SHP:1,2011-07-01T06:42:00Z,30.0600,-84.2910,0.365,1111122 
COMPS,ioos:station:USF.COMPS:SHP:1,2011-07-01T06:48:00Z,30.0600,-84.2910,0.37,1111122 
COMPS,ioos:station:USF.COMPS:SHP:1,2011-07-01T06:54:00Z,30.0600,-84.2910,0.385,1111122 
COMPS,ioos:station:USF.COMPS:SHP:1,2011-07-01T07:00:00Z,30.0600,-84.2910,0.404,1111122 
COMPS,ioos:station:USF.COMPS:SHP:1,2011-07-01T07:06:00Z,30.0600,-84.2910,0.411,1111122 
COMPS,ioos:station:USF.COMPS:SHP:1,2011-07-01T07:12:00Z,30.0600,-84.2910,0.415,1111122 
COMPS,ioos:station:USF.COMPS:SHP:1,2011-07-01T07:18:00Z,30.0600,-84.2910,0.42,1111122 
COMPS,ioos:station:USF.COMPS:SHP:1,2011-07-01T07:24:00Z,30.0600,-84.2910,0.426,1111122 
COMPS,ioos:station:USF.COMPS:SHP:1,2011-07-01T07:30:00Z,30.0600,-84.2910,0.43,1111122 
COMPS,ioos:station:USF.COMPS:SHP:1,2011-07-01T07:36:00Z,30.0600,-84.2910,0.43,1111122 
COMPS,ioos:station:USF.COMPS:SHP:1,2011-07-01T07:42:00Z,30.0600,-84.2910,0.437,1111122 
COMPS,ioos:station:USF.COMPS:SHP:1,2011-07-01T07:48:00Z,30.0600,-84.2910,0.435,1111122 
COMPS,ioos:station:USF.COMPS:SHP:1,2011-07-01T07:54:00Z,30.0600,-84.2910,0.431,1111122 
COMPS,ioos:station:USF.COMPS:SHP:1,2011-07-01T08:00:00Z,30.0600,-84.2910,0.444,1111122 
COMPS,ioos:station:USF.COMPS:SHP:1,2011-07-01T08:06:00Z,30.0600,-84.2910,0.448,1111122 
COMPS,ioos:station:USF.COMPS:SHP:1,2011-07-01T08:12:00Z,30.0600,-84.2910,0.437,1111122 
COMPS,ioos:station:USF.COMPS:SHP:1,2011-07-01T08:18:00Z,30.0600,-84.2910,0.439,1111122 
COMPS,ioos:station:USF.COMPS:SHP:1,2011-07-01T08:24:00Z,30.0600,-84.2910,0.437,1111122 
COMPS,ioos:station:USF.COMPS:SHP:1,2011-07-01T08:30:00Z,30.0600,-84.2910,0.429,1111122 
COMPS,ioos:station:USF.COMPS:SHP:1,2011-07-01T08:36:00Z,30.0600,-84.2910,0.431,1111122 
COMPS,ioos:station:USF.COMPS:SHP:1,2011-07-01T08:42:00Z,30.0600,-84.2910,0.437,1111122 
COMPS,ioos:station:USF.COMPS:SHP:1,2011-07-01T08:48:00Z,30.0600,-84.2910,0.427,1111122 
COMPS,ioos:station:USF.COMPS:SHP:1,2011-07-01T08:54:00Z,30.0600,-84.2910,0.414,1111122 
COMPS,ioos:station:USF.COMPS:SHP:1,2011-07-01T09:00:00Z,30.0600,-84.2910,0.402,1111122 
COMPS,ioos:station:USF.COMPS:SHP:1,2011-07-01T09:06:00Z,30.0600,-84.2910,0.398,1111122 
COMPS,ioos:station:USF.COMPS:SHP:1,2011-07-01T09:12:00Z,30.0600,-84.2910,0.391,1111122 
COMPS,ioos:station:USF.COMPS:SHP:1,2011-07-01T09:18:00Z,30.0600,-84.2910,0.379,1111122 
COMPS,ioos:station:USF.COMPS:SHP:1,2011-07-01T09:24:00Z,30.0600,-84.2910,0.366,1111122 
COMPS,ioos:station:USF.COMPS:SHP:1,2011-07-01T09:30:00Z,30.0600,-84.2910,0.355,1111122 
COMPS,ioos:station:USF.COMPS:SHP:1,2011-07-01T09:36:00Z,30.0600,-84.2910,0.34,1111122 
COMPS,ioos:station:USF.COMPS:SHP:1,2011-07-01T09:42:00Z,30.0600,-84.2910,0.32,1111122 
COMPS,ioos:station:USF.COMPS:SHP:1,2011-07-01T09:48:00Z,30.0600,-84.2910,0.291,1111122 
COMPS,ioos:station:USF.COMPS:SHP:1,2011-07-01T09:54:00Z,30.0600,-84.2910,0.274,1111122 
COMPS,ioos:station:USF.COMPS:SHP:1,2011-07-01T10:00:00Z,30.0600,-84.2910,0.268,1111122 
COMPS,ioos:station:USF.COMPS:SHP:1,2011-07-01T10:06:00Z,30.0600,-84.2910,0.253,1111122 
COMPS,ioos:station:USF.COMPS:SHP:1,2011-07-01T10:12:00Z,30.0600,-84.2910,0.234,1111122 
COMPS,ioos:station:USF.COMPS:SHP:1,2011-07-01T10:18:00Z,30.0600,-84.2910,0.214,1111122 
COMPS,ioos:station:USF.COMPS:SHP:1,2011-07-01T10:24:00Z,30.0600,-84.2910,0.19,1111122 
COMPS,ioos:station:USF.COMPS:SHP:1,2011-07-01T10:30:00Z,30.0600,-84.2910,0.168,1111122 
COMPS,ioos:station:USF.COMPS:SHP:1,2011-07-01T10:36:00Z,30.0600,-84.2910,0.151,1111122 
COMPS,ioos:station:USF.COMPS:SHP:1,2011-07-01T10:42:00Z,30.0600,-84.2910,0.136,1111122 
COMPS,ioos:station:USF.COMPS:SHP:1,2011-07-01T10:48:00Z,30.0600,-84.2910,0.12,1111122 
COMPS,ioos:station:USF.COMPS:SHP:1,2011-07-01T10:54:00Z,30.0600,-84.2910,0.102,1111122 
COMPS,ioos:station:USF.COMPS:SHP:1,2011-07-01T11:00:00Z,30.0600,-84.2910,0.09,1111122 
COMPS,ioos:station:USF.COMPS:SHP:1,2011-07-01T11:06:00Z,30.0600,-84.2910,0.075,1111122 
COMPS,ioos:station:USF.COMPS:SHP:1,2011-07-01T11:12:00Z,30.0600,-84.2910,0.056,1111122 
COMPS,ioos:station:USF.COMPS:SHP:1,2011-07-01T11:18:00Z,30.0600,-84.2910,0.038,1111122 
COMPS,ioos:station:USF.COMPS:SHP:1,2011-07-01T11:24:00Z,30.0600,-84.2910,0.025,1111122 
COMPS,ioos:station:USF.COMPS:SHP:1,2011-07-01T11:30:00Z,30.0600,-84.2910,0.016,1111122 
COMPS,ioos:station:USF.COMPS:SHP:1,2011-07-01T11:36:00Z,30.0600,-84.2910,0.006,1111122 
COMPS,ioos:station:USF.COMPS:SHP:1,2011-07-01T11:42:00Z,30.0600,-84.2910,-0.004,1111122 
COMPS,ioos:station:USF.COMPS:SHP:1,2011-07-01T11:48:00Z,30.0600,-84.2910,-0.013,1111122 
COMPS,ioos:station:USF.COMPS:SHP:1,2011-07-01T11:54:00Z,30.0600,-84.2910,-0.026,1111122 
COMPS,ioos:station:USF.COMPS:SHP:1,2011-07-01T12:00:00Z,30.0600,-84.2910,-0.039,1111122 
COMPS,ioos:station:USF.COMPS:SHP:1,2011-07-01T12:06:00Z,30.0600,-84.2910,-0.048,1111122 
COMPS,ioos:station:USF.COMPS:SHP:1,2011-07-01T12:12:00Z,30.0600,-84.2910,-0.056,1111122 
COMPS,ioos:station:USF.COMPS:SHP:1,2011-07-01T12:18:00Z,30.0600,-84.2910,-0.058,1111122 
COMPS,ioos:station:USF.COMPS:SHP:1,2011-07-01T12:24:00Z,30.0600,-84.2910,-0.067,1111122 
COMPS,ioos:station:USF.COMPS:SHP:1,2011-07-01T12:30:00Z,30.0600,-84.2910,-0.082,1111122 
COMPS,ioos:station:USF.COMPS:SHP:1,2011-07-01T12:36:00Z,30.0600,-84.2910,-0.078,1111122 
COMPS,ioos:station:USF.COMPS:SHP:1,2011-07-01T12:42:00Z,30.0600,-84.2910,-0.069,1111122 
COMPS,ioos:station:USF.COMPS:SHP:1,2011-07-01T12:48:00Z,30.0600,-84.2910,-0.078,1111122 
COMPS,ioos:station:USF.COMPS:SHP:1,2011-07-01T12:54:00Z,30.0600,-84.2910,-0.078,1111122 
COMPS,ioos:station:USF.COMPS:SHP:1,2011-07-01T13:00:00Z,30.0600,-84.2910,-0.071,1111122 
COMPS,ioos:station:USF.COMPS:SHP:1,2011-07-01T13:06:00Z,30.0600,-84.2910,-0.062,1111122 
COMPS,ioos:station:USF.COMPS:SHP:1,2011-07-01T13:12:00Z,30.0600,-84.2910,-0.059,1111122 
COMPS,ioos:station:USF.COMPS:SHP:1,2011-07-01T13:18:00Z,30.0600,-84.2910,-0.062,1111122 
COMPS,ioos:station:USF.COMPS:SHP:1,2011-07-01T13:24:00Z,30.0600,-84.2910,-0.054,1111122 
COMPS,ioos:station:USF.COMPS:SHP:1,2011-07-01T13:30:00Z,30.0600,-84.2910,-0.037,1111122 
COMPS,ioos:station:USF.COMPS:SHP:1,2011-07-01T13:36:00Z,30.0600,-84.2910,-0.023,1111122 
COMPS,ioos:station:USF.COMPS:SHP:1,2011-07-01T13:42:00Z,30.0600,-84.2910,-0.014,1111122 
COMPS,ioos:station:USF.COMPS:SHP:1,2011-07-01T13:48:00Z,30.0600,-84.2910,-0.013,1111122 
COMPS,ioos:station:USF.COMPS:SHP:1,2011-07-01T13:54:00Z,30.0600,-84.2910,-0.011,1111122 
COMPS,ioos:station:USF.COMPS:SHP:1,2011-07-01T14:00:00Z,30.0600,-84.2910,0.004,1111122 
COMPS,ioos:station:USF.COMPS:SHP:1,2011-07-01T14:06:00Z,30.0600,-84.2910,0.026,1111122 
COMPS,ioos:station:USF.COMPS:SHP:1,2011-07-01T14:12:00Z,30.0600,-84.2910,0.041,1111122 
COMPS,ioos:station:USF.COMPS:SHP:1,2011-07-01T14:18:00Z,30.0600,-84.2910,0.054,1111122 
COMPS,ioos:station:USF.COMPS:SHP:1,2011-07-01T14:24:00Z,30.0600,-84.2910,0.071,1111122 
COMPS,ioos:station:USF.COMPS:SHP:1,2011-07-01T14:30:00Z,30.0600,-84.2910,0.084,1111122 
COMPS,ioos:station:USF.COMPS:SHP:1,2011-07-01T14:36:00Z,30.0600,-84.2910,0.094,1111122 
COMPS,ioos:station:USF.COMPS:SHP:1,2011-07-01T14:42:00Z,30.0600,-84.2910,0.104,1111122 
COMPS,ioos:station:USF.COMPS:SHP:1,2011-07-01T14:48:00Z,30.0600,-84.2910,0.119,1111122 
COMPS,ioos:station:USF.COMPS:SHP:1,2011-07-01T14:54:00Z,30.0600,-84.2910,0.141,1111122 
COMPS,ioos:station:USF.COMPS:SHP:1,2011-07-01T15:00:00Z,30.0600,-84.2910,0.164,1111122 
COMPS,ioos:station:USF.COMPS:SHP:1,2011-07-01T15:06:00Z,30.0600,-84.2910,0.18,1111122 
COMPS,ioos:station:USF.COMPS:SHP:1,2011-07-01T15:12:00Z,30.0600,-84.2910,0.194,1111122 
COMPS,ioos:station:USF.COMPS:SHP:1,2011-07-01T15:18:00Z,30.0600,-84.2910,0.219,1111122 
COMPS,ioos:station:USF.COMPS:SHP:1,2011-07-01T15:24:00Z,30.0600,-84.2910,0.24,1111122 
COMPS,ioos:station:USF.COMPS:SHP:1,2011-07-01T15:30:00Z,30.0600,-84.2910,0.246,1111122 
COMPS,ioos:station:USF.COMPS:SHP:1,2011-07-01T15:36:00Z,30.0600,-84.2910,0.252,1111122 
COMPS,ioos:station:USF.COMPS:SHP:1,2011-07-01T15:42:00Z,30.0600,-84.2910,0.263,1111122 
COMPS,ioos:station:USF.COMPS:SHP:1,2011-07-01T15:48:00Z,30.0600,-84.2910,0.29,1111122 
COMPS,ioos:station:USF.COMPS:SHP:1,2011-07-01T15:54:00Z,30.0600,-84.2910,0.318,1111122 
COMPS,ioos:station:USF.COMPS:SHP:1,2011-07-01T16:00:00Z,30.0600,-84.2910,0.337,1111122 
COMPS,ioos:station:USF.COMPS:SHP:1,2011-07-01T16:06:00Z,30.0600,-84.2910,0.353,1111122 
COMPS,ioos:station:USF.COMPS:SHP:1,2011-07-01T16:12:00Z,30.0600,-84.2910,0.368,1111122 
COMPS,ioos:station:USF.COMPS:SHP:1,2011-07-01T16:18:00Z,30.0600,-84.2910,0.388,1111122 
COMPS,ioos:station:USF.COMPS:SHP:1,2011-07-01T16:24:00Z,30.0600,-84.2910,0.409,1111122 
COMPS,ioos:station:USF.COMPS:SHP:1,2011-07-01T16:30:00Z,30.0600,-84.2910,0.426,1111122 
COMPS,ioos:station:USF.COMPS:SHP:1,2011-07-01T16:36:00Z,30.0600,-84.2910,0.443,1111122 
COMPS,ioos:station:USF.COMPS:SHP:1,2011-07-01T16:42:00Z,30.0600,-84.2910,0.465,1111122 
COMPS,ioos:station:USF.COMPS:SHP:1,2011-07-01T16:48:00Z,30.0600,-84.2910,0.478,1111122 
COMPS,ioos:station:USF.COMPS:SHP:1,2011-07-01T16:54:00Z,30.0600,-84.2910,0.484,1111122 
COMPS,ioos:station:USF.COMPS:SHP:1,2011-07-01T17:00:00Z,30.0600,-84.2910,0.5,1111122 
COMPS,ioos:station:USF.COMPS:SHP:1,2011-07-01T17:06:00Z,30.0600,-84.2910,0.522,1111122 
COMPS,ioos:station:USF.COMPS:SHP:1,2011-07-01T17:12:00Z,30.0600,-84.2910,0.538,1111122 
COMPS,ioos:station:USF.COMPS:SHP:1,2011-07-01T17:18:00Z,30.0600,-84.2910,0.559,1111122 
COMPS,ioos:station:USF.COMPS:SHP:1,2011-07-01T17:24:00Z,30.0600,-84.2910,0.58,1111122 
COMPS,ioos:station:USF.COMPS:SHP:1,2011-07-01T17:30:00Z,30.0600,-84.2910,0.587,1111122 
COMPS,ioos:station:USF.COMPS:SHP:1,2011-07-01T17:36:00Z,30.0600,-84.2910,0.597,1111122 
COMPS,ioos:station:USF.COMPS:SHP:1,2011-07-01T17:42:00Z,30.0600,-84.2910,0.604,1111122 
COMPS,ioos:station:USF.COMPS:SHP:1,2011-07-01T17:48:00Z,30.0600,-84.2910,0.607,1111122 
COMPS,ioos:station:USF.COMPS:SHP:1,2011-07-01T17:54:00Z,30.0600,-84.2910,0.63,1111122 
COMPS,ioos:station:USF.COMPS:SHP:1,2011-07-01T18:00:00Z,30.0600,-84.2910,0.65,1111122 
COMPS,ioos:station:USF.COMPS:SHP:1,2011-07-01T18:06:00Z,30.0600,-84.2910,0.643,1111122 
COMPS,ioos:station:USF.COMPS:SHP:1,2011-07-01T18:12:00Z,30.0600,-84.2910,0.636,1111122 
COMPS,ioos:station:USF.COMPS:SHP:1,2011-07-01T18:18:00Z,30.0600,-84.2910,0.635,1111122 
COMPS,ioos:station:USF.COMPS:SHP:1,2011-07-01T18:24:00Z,30.0600,-84.2910,0.626,1111122 
COMPS,ioos:station:USF.COMPS:SHP:1,2011-07-01T18:30:00Z,30.0600,-84.2910,0.643,1111122 
COMPS,ioos:station:USF.COMPS:SHP:1,2011-07-01T18:36:00Z,30.0600,-84.2910,0.657,1111122 
COMPS,ioos:station:USF.COMPS:SHP:1,2011-07-01T18:42:00Z,30.0600,-84.2910,0.667,1111122 
COMPS,ioos:station:USF.COMPS:SHP:1,2011-07-01T18:48:00Z,30.0600,-84.2910,0.669,1111122 
COMPS,ioos:station:USF.COMPS:SHP:1,2011-07-01T18:54:00Z,30.0600,-84.2910,0.659,1111122 
COMPS,ioos:station:USF.COMPS:SHP:1,2011-07-01T19:00:00Z,30.0600,-84.2910,0.644,1111122 
COMPS,ioos:station:USF.COMPS:SHP:1,2011-07-01T19:06:00Z,30.0600,-84.2910,0.648,1111122 
COMPS,ioos:station:USF.COMPS:SHP:1,2011-07-01T19:12:00Z,30.0600,-84.2910,0.648,1111122 
COMPS,ioos:station:USF.COMPS:SHP:1,2011-07-01T19:18:00Z,30.0600,-84.2910,0.648,1111122 
COMPS,ioos:station:USF.COMPS:SHP:1,2011-07-01T19:24:00Z,30.0600,-84.2910,0.639,1111122 
COMPS,ioos:station:USF.COMPS:SHP:1,2011-07-01T19:30:00Z,30.0600,-84.2910,0.629,1111122 
COMPS,ioos:station:USF.COMPS:SHP:1,2011-07-01T19:36:00Z,30.0600,-84.2910,0.618,1111122 
COMPS,ioos:station:USF.COMPS:SHP:1,2011-07-01T19:42:00Z,30.0600,-84.2910,0.609,1111122 
COMPS,ioos:station:USF.COMPS:SHP:1,2011-07-01T19:48:00Z,30.0600,-84.2910,0.606,1111122 
COMPS,ioos:station:USF.COMPS:SHP:1,2011-07-01T19:54:00Z,30.0600,-84.2910,0.586,1111122 
COMPS,ioos:station:USF.COMPS:SHP:1,2011-07-01T20:00:00Z,30.0600,-84.2910,0.565,1111122 
COMPS,ioos:station:USF.COMPS:SHP:1,2011-07-01T20:06:00Z,30.0600,-84.2910,0.564,1111122 
COMPS,ioos:station:USF.COMPS:SHP:1,2011-07-01T20:12:00Z,30.0600,-84.2910,0.55,1111122 
COMPS,ioos:station:USF.COMPS:SHP:1,2011-07-01T20:18:00Z,30.0600,-84.2910,0.521,1111122 
COMPS,ioos:station:USF.COMPS:SHP:1,2011-07-01T20:24:00Z,30.0600,-84.2910,0.498,1111122 
COMPS,ioos:station:USF.COMPS:SHP:1,2011-07-01T20:30:00Z,30.0600,-84.2910,0.477,1111122 
COMPS,ioos:station:USF.COMPS:SHP:1,2011-07-01T20:36:00Z,30.0600,-84.2910,0.453,1111122 
COMPS,ioos:station:USF.COMPS:SHP:1,2011-07-01T20:42:00Z,30.0600,-84.2910,0.433,1111122 
COMPS,ioos:station:USF.COMPS:SHP:1,2011-07-01T20:48:00Z,30.0600,-84.2910,0.414,1111122 
COMPS,ioos:station:USF.COMPS:SHP:1,2011-07-01T20:54:00Z,30.0600,-84.2910,0.386,1111122 
COMPS,ioos:station:USF.COMPS:SHP:1,2011-07-01T21:00:00Z,30.0600,-84.2910,0.361,1111122 
COMPS,ioos:station:USF.COMPS:SHP:1,2011-07-01T21:06:00Z,30.0600,-84.2910,0.343,1111122 
COMPS,ioos:station:USF.COMPS:SHP:1,2011-07-01T21:12:00Z,30.0600,-84.2910,0.318,1111122 
COMPS,ioos:station:USF.COMPS:SHP:1,2011-07-01T21:18:00Z,30.0600,-84.2910,0.287,1111122 
COMPS,ioos:station:USF.COMPS:SHP:1,2011-07-01T21:24:00Z,30.0600,-84.2910,0.26,1111122 
COMPS,ioos:station:USF.COMPS:SHP:1,2011-07-01T21:30:00Z,30.0600,-84.2910,0.24,1111122 
COMPS,ioos:station:USF.COMPS:SHP:1,2011-07-01T21:36:00Z,30.0600,-84.2910,0.214,1111122 
COMPS,ioos:station:USF.COMPS:SHP:1,2011-07-01T21:42:00Z,30.0600,-84.2910,0.183,1111122 
COMPS,ioos:station:USF.COMPS:SHP:1,2011-07-01T21:48:00Z,30.0600,-84.2910,0.153,1111122 
COMPS,ioos:station:USF.COMPS:SHP:1,2011-07-01T21:54:00Z,30.0600,-84.2910,0.125,1111122 
COMPS,ioos:station:USF.COMPS:SHP:1,2011-07-01T22:00:00Z,30.0600,-84.2910,0.099,1111122 
COMPS,ioos:station:USF.COMPS:SHP:1,2011-07-01T22:06:00Z,30.0600,-84.2910,0.07,1111122 
COMPS,ioos:station:USF.COMPS:SHP:1,2011-07-01T22:12:00Z,30.0600,-84.2910,0.045,1111122 
COMPS,ioos:station:USF.COMPS:SHP:1,2011-07-01T22:18:00Z,30.0600,-84.2910,0.022,1111122 
COMPS,ioos:station:USF.COMPS:SHP:1,2011-07-01T22:24:00Z,30.0600,-84.2910,-0.003,1111122 
COMPS,ioos:station:USF.COMPS:SHP:1,2011-07-01T22:30:00Z,30.0600,-84.2910,-0.031,1111122 
COMPS,ioos:station:USF.COMPS:SHP:1,2011-07-01T22:36:00Z,30.0600,-84.2910,-0.06,1111122 
COMPS,ioos:station:USF.COMPS:SHP:1,2011-07-01T22:42:00Z,30.0600,-84.2910,-0.084,1111122 
COMPS,ioos:station:USF.COMPS:SHP:1,2011-07-01T22:48:00Z,30.0600,-84.2910,-0.111,1111122 
COMPS,ioos:station:USF.COMPS:SHP:1,2011-07-01T22:54:00Z,30.0600,-84.2910,-0.144,1111122 
COMPS,ioos:station:USF.COMPS:SHP:1,2011-07-01T23:00:00Z,30.0600,-84.2910,-0.173,1111122 
COMPS,ioos:station:USF.COMPS:SHP:1,2011-07-01T23:06:00Z,30.0600,-84.2910,-0.201,1111122 
COMPS,ioos:station:USF.COMPS:SHP:1,2011-07-01T23:12:00Z,30.0600,-84.2910,-0.227,1111122 
COMPS,ioos:station:USF.COMPS:SHP:1,2011-07-01T23:18:00Z,30.0600,-84.2910,-0.254,1111122 
COMPS,ioos:station:USF.COMPS:SHP:1,2011-07-01T23:24:00Z,30.0600,-84.2910,-0.278,1111122 
COMPS,ioos:station:USF.COMPS:SHP:1,2011-07-01T23:30:00Z,30.0600,-84.2910,-0.302,1111122 
COMPS,ioos:station:USF.COMPS:SHP:1,2011-07-01T23:36:00Z,30.0600,-84.2910,-0.327,1111122 
COMPS,ioos:station:USF.COMPS:SHP:1,2011-07-01T23:42:00Z,30.0600,-84.2910,-0.348,1111122 
COMPS,ioos:station:USF.COMPS:SHP:1,2011-07-01T23:48:00Z,30.0600,-84.2910,-0.369,1111122 
COMPS,ioos:station:USF.COMPS:SHP:1,2011-07-01T23:54:00Z,30.0600,-84.2910,-0.39,1111122 
COMPS,ioos:station:USF.COMPS:SHP:1,2011-07-02T00:00:00Z,30.0600,-84.2910,-0.41,1111122 
COMPS,ioos:station:USF.COMPS:SHP:1,2011-07-02T00:06:00Z,30.0600,-84.2910,-0.428,1111122 
COMPS,ioos:station:USF.COMPS:SHP:1,2011-07-02T00:12:00Z,30.0600,-84.2910,-0.449,1111122 
COMPS,ioos:station:USF.COMPS:SHP:1,2011-07-02T00:18:00Z,30.0600,-84.2910,-0.471,1111122 
COMPS,ioos:station:USF.COMPS:SHP:1,2011-07-02T00:24:00Z,30.0600,-84.2910,-0.493,1111122 
COMPS,ioos:station:USF.COMPS:SHP:1,2011-07-02T00:30:00Z,30.0600,-84.2910,-0.515,1111122 
COMPS,ioos:station:USF.COMPS:SHP:1,2011-07-02T00:36:00Z,30.0600,-84.2910,-0.536,1111122 
COMPS,ioos:station:USF.COMPS:SHP:1,2011-07-02T00:42:00Z,30.0600,-84.2910,-0.557,1111122 
COMPS,ioos:station:USF.COMPS:SHP:1,2011-07-02T00:48:00Z,30.0600,-84.2910,-0.577,1111122 
COMPS,ioos:station:USF.COMPS:SHP:1,2011-07-02T00:54:00Z,30.0600,-84.2910,-0.595,1111122 
COMPS,ioos:station:USF.COMPS:SHP:1,2011-07-02T01:00:00Z,30.0600,-84.2910,-0.611,1111122 
COMPS,ioos:station:USF.COMPS:SHP:1,2011-07-02T01:06:00Z,30.0600,-84.2910,-0.629,1111122 
COMPS,ioos:station:USF.COMPS:SHP:1,2011-07-02T01:12:00Z,30.0600,-84.2910,-0.642,1111122 
COMPS,ioos:station:USF.COMPS:SHP:1,2011-07-02T01:18:00Z,30.0600,-84.2910,-0.654,1111122 
COMPS,ioos:station:USF.COMPS:SHP:1,2011-07-02T01:24:00Z,30.0600,-84.2910,-0.669,1111122 
COMPS,ioos:station:USF.COMPS:SHP:1,2011-07-02T01:30:00Z,30.0600,-84.2910,-0.686,1111122 
COMPS,ioos:station:USF.COMPS:SHP:1,2011-07-02T01:36:00Z,30.0600,-84.2910,-0.699,1111122 
COMPS,ioos:station:USF.COMPS:SHP:1,2011-07-02T01:42:00Z,30.0600,-84.2910,-0.712,1111122 
COMPS,ioos:station:USF.COMPS:SHP:1,2011-07-02T01:48:00Z,30.0600,-84.2910,-0.724,1111122 
COMPS,ioos:station:USF.COMPS:SHP:1,2011-07-02T01:54:00Z,30.0600,-84.2910,-0.733,1111122 
COMPS,ioos:station:USF.COMPS:SHP:1,2011-07-02T02:00:00Z,30.0600,-84.2910,-0.739,1111122 
COMPS,ioos:station:USF.COMPS:SHP:1,2011-07-02T02:06:00Z,30.0600,-84.2910,-0.743,1111122 
COMPS,ioos:station:USF.COMPS:SHP:1,2011-07-02T02:12:00Z,30.0600,-84.2910,-0.745,1111122 
COMPS,ioos:station:USF.COMPS:SHP:1,2011-07-02T02:18:00Z,30.0600,-84.2910,-0.745,1111122 
COMPS,ioos:station:USF.COMPS:SHP:1,2011-07-02T02:24:00Z,30.0600,-84.2910,-0.742,1111122 
COMPS,ioos:station:USF.COMPS:SHP:1,2011-07-02T02:30:00Z,30.0600,-84.2910,-0.736,1111122 
COMPS,ioos:station:USF.COMPS:SHP:1,2011-07-02T02:36:00Z,30.0600,-84.2910,-0.729,1111122 
COMPS,ioos:station:USF.COMPS:SHP:1,2011-07-02T02:42:00Z,30.0600,-84.2910,-0.721,1111122 
COMPS,ioos:station:USF.COMPS:SHP:1,2011-07-02T02:48:00Z,30.0600,-84.2910,-0.713,1111122 
COMPS,ioos:station:USF.COMPS:SHP:1,2011-07-02T02:54:00Z,30.0600,-84.2910,-0.704,1111122 